Location: College Park
(38.9810°N, 76.9370°W)
Time: 06:01:39
(UTC-04:00)

N. Korean satellite - Pass Details

Date: 08 January 2018
Orbit: 459 x 511 km, 97.2° (Epoch: 24 June)

Event Time Altitude Azimuth Distance (km) Brightness Sun altitude
Rises 17:29:57 0° 145° (SE) 2,605 10.2 -5.6°
Reaches altitude 10° 17:32:12 10° 135° (SE) 1,719 9.1 -6.0°
Maximum altitude 17:35:29 31° 73° (ENE) 914 7.4 -6.6°
Drops below altitude 10° 17:38:44 10° 10° (N) 1,708 9.0 -7.2°
Sets 17:40:58 0° 360° (N) 2,587 10.0 -7.6°
